Regional Weather Roundup
Issued by NWS Little Rock, AR

Home | Current Version | Previous Version | Text Only | Print | Product List | Glossary Off
Versions: 1 2 3 4 5 6 7 8 9 10 11 12 13 14 15 16 17 18 19 20 21 22 23 24 25 26 27 28 29 30 31 32 33 34 35 36 37 38 39 40 41 42 43 44 45 46 47 48 49 50

000
ASUS44 KLZK 281105
RWRLZK

WEATHER ROUNDUP FOR ARKANSAS
NATIONAL WEATHER SERVICE LITTLE ROCK AR
600 AM CDT MON JUL 28 2014

NOTE: "FAIR" INDICATES FEW OR NO CLOUDS BELOW 12,000 FEET WITH NO
SIGNIFICANT WEATHER AND/OR OBSTRUCTIONS TO VISIBILITY.

ARZ001-003-010-029-281200-
NORTHWEST ARKANSAS

CITY           SKY/WX    TMP DP  RH WIND       PRES   REMARKS
FAYETTEVILLE   CLEAR     60  60 100 CALM      30.16R
FORT SMITH     CLEAR     73  65  75 NE3       30.11R
HARRISON       CLEAR     64  59  83 NW6       30.16R
BENTONVILLE    CLEAR     64  57  77 NE3       30.18R
ROGERS         CLEAR     63  60  90 CALM      30.18R
SILOAM SPGS    CLEAR     64  55  72 N5        30.18R
HIGHFILL       CLEAR     62  59  90 N3        30.17R
SPRINGDALE     CLEAR     68  59  73 N7        30.18
$$

ARZ004-005-016-281200-
NORTH CENTRAL ARKANSAS

CITY           SKY/WX    TMP DP  RH WIND       PRES   REMARKS
BATESVILLE     CLEAR     66  63  88 W3        30.08R
FLIPPIN        CLEAR     66  59  77 NW5       30.13R
MTN HOME       CLEAR     62  59  90 NW3       30.12R
$$

ARZ040-041-281200-
WEST CENTRAL ARKANSAS

CITY           SKY/WX    TMP DP  RH WIND       PRES   REMARKS
MENA           PTCLDY    79  64  61 CALM      30.12R
MOUNT IDA      FOG       72  70  93 CALM      30.08R VSB 1
$$

ARZ009-017-025-026-028-281200-
NORTHEAST ARKANSAS

CITY           SKY/WX    TMP DP  RH WIND       PRES   REMARKS
CORNING        FAIR      66  61  82 CALM      30.06R
JONESBORO      CLEAR     68  62  81 NW5       30.05R
NEWPORT        CLEAR     68  63  84 NW9       30.07R
WALNUT RIDGE   CLEAR     66  59  77 N7        30.05R
BLYTHEVILLE    CLEAR     65  64  97 NW6       30.04R
$$

ARZ022-023-033-042-044-281200-
CENTRAL ARKANSAS

CITY           SKY/WX    TMP DP  RH WIND       PRES   REMARKS
LITTLE ROCK    PTCLDY    74  63  68 N8        30.07R
N LITTLE ROCK    N/A     74  65  73 N7        30.07R
JACKSONVILLE   CLEAR     70  66  85 NW3       30.07R
SEARCY         CLEAR     71  63  76 NW3       30.08R
HOT SPRINGS    PTCLDY    75  65  70 VRB5      30.08R
RUSSELLVILLE   CLEAR     69  66  90 CALM      30.09R
CLINTON        FAIR      64  64 100 CALM      30.10R
$$

ARZ036-281200-
EAST ARKANSAS

CITY           SKY/WX    TMP DP  RH WIND       PRES   REMARKS
WEST MEMPHIS   CLEAR     70  65  84 N6        30.03R
$$

ARZ050-053-066-070-073-281200-
SOUTHWEST ARKANSAS

CITY           SKY/WX    TMP DP  RH WIND       PRES   REMARKS
ARKADELPHIA    FAIR      78  72  82 N6        30.05S
CAMDEN         PTCLDY    77  72  83 N6        30.03S
TEXARKANA      CLOUDY    79  74  84 N5        30.05S
EL DORADO      MOCLDY    78  75  90 SW3       30.05R
DE QUEEN       PTCLDY    75  73  93 CALM      30.05R
$$

ARZ056-057-069-281200-
SOUTHEAST ARKANSAS

CITY           SKY/WX    TMP DP  RH WIND       PRES   REMARKS
PINE BLUFF     PTCLDY    75  65  70 N8        30.04R
STUTTGART      CLEAR     72  66  83 N8        30.05R
MONTICELLO     CLOUDY    81  68  64 VRB5      30.03R

$$





USA.gov is the U.S. government's official web portal to all federal, state and local government web resources and services.